Location: Lecco
(45.8566°N, 9.3977°E)
Time: 07:50:42
(UTC+02:00)

S-56A Canister/Altair - Pass Details

Date: 29 July 2019
Orbit: 633 x 2499 km, 38.9° (Epoch: 19 August)

Event Time Altitude Azimuth Distance (km) Brightness Sun altitude
Rises 13:45:32 0° 277° (W) 5,992 12.1 62.7°
Reaches altitude 10° 13:52:55 10° 254° (WSW) 5,141 12.1 62.4°
Maximum altitude 13:58:06 13° 233° (SW) 4,929 12.2 62.2°
Drops below altitude 10° 14:03:16 10° 212° (SSW) 5,089 12.3 62.0°
Sets 14:10:37 0° 188° (S) 5,867 12.4 61.5°
